Location: Unspecified
(17.6330°N, 0.0000°E)
Time: 11:15:42
(UTC+00:00)

N. Korean satellite - Visible Passes

Search period start: 15 October 2019 00:00
Search period end: 25 October 2019 00:00
Orbit: 455 x 508 km, 97.2° (Epoch: 14 October)

Date Brightness Start Highest point End Pass type
(mag) Time Alt. Az. Time Alt. Az. Time Alt. Az.
15 Oct 7.6 05:29:24 10° NNE 05:32:56 54° E 05:36:31 10° S visible
16 Oct 9.6 05:04:52 10° NE 05:07:40 21° E 05:10:30 10° SSE visible
17 Oct 10.0 18:10:13 10° SW 18:12:14 15° W 18:14:15 10° WNW visible
19 Oct 8.3 05:21:44 10° NNE 05:25:11 40° E 05:28:40 10° S visible
20 Oct 10.0 04:57:30 10° ENE 04:59:54 17° E 05:02:18 10° SE visible
21 Oct 9.7 18:01:52 10° SSW 18:04:24 19° W 18:06:56 10° NW visible
23 Oct 8.9 05:14:06 10° NE 05:17:23 30° E 05:20:41 10° SSE visible
24 Oct 10.3 04:50:20 10° ENE 04:52:04 13° E 04:53:48 10° SE visible
24 Oct 10.6 18:21:25 10° WSW 18:21:51 10° W 18:22:18 10° W visible
